Weather in Orlovka

Russia / Stavropol Krai     44°41′18″N   44°10′16″E
temp.,
°C
wind,
m/s
gust,
m/s
humid.,
%
clouds,
%
prec.,
mm/h
press.,
hPa
HPBL,
m
3 august, tue
tue300:00+25w11570 0.0 101011
03:00+24sse33590 0.0 101125
06:00+24ssw12580 0.0 101230
09:00+30sse11360 0.0 1012624
12:00+35e23190 0.0 10111823
15:00+37e33130 0.0 10092873
18:00+36e34150 0.0 1009159
21:00+30s33280 0.0 101024
4 august, wed
wed400:00+27sw33320 0.0 101022
03:00+25wsw33320 0.0 101034
06:00+25wnw36410 0.0 1012118
09:00+32wnw44340 0.0 1012585
12:00+37nw54235 0.0 10112238
15:00+38nw532011 0.0 10103263
18:00+36nnw562471 0.0 1010984
21:00+30nnw37343 0.0 1012114
5 august, thu
thu500:00+28n4113925 0.0 1012291
03:00+26n3746100 0.0 1012149
06:00+25w4655100 0.3 1013153
09:00+30n4540100 0.4 1014749
12:00+34nne4529100 0.0 10121842
15:00+36ne54244 0.0 10112793
18:00+35ne55255 0.0 10101971
21:00+30ne6123225 0.0 1011320
6 august, fri
fri600:00+28ene513380 0.0 1010303
03:00+26ene413430 0.0 1009301
06:00+26ene512450 0.0 1010350
09:00+32ese78320 0.0 1010991
12:00+37ese810250 0.0 10082115
15:00+38e910220 0.0 10062786
18:00+33e10113065 0.0 1006995
21:00+27e81546100 0.0 1007453
7 august, sat
sat700:00+25e61651100 0.0 1007486
03:00+25e61553100 0.0 1006493
06:00+24ene4125596 0.1 1007472
09:00+30e7839100 0.3 1006872
12:00+36ese78235 0.0 10051719
15:00+39e5618100 0.0 10032496
18:00+34ene81026100 0.0 1004691
21:00+29nw5746100 0.0 1008224